Year,Month,Day,Hour,Minute,Value (Times are PST for temperature in C)
2008,06,30,00,00,13.10
2008,06,30,00,01,13.10
2008,06,30,00,02,13.10
2008,06,30,00,03,13.20
2008,06,30,00,04,13.20
2008,06,30,00,05,13.20
2008,06,30,00,06,13.20
2008,06,30,00,07,13.30
2008,06,30,00,08,13.30
2008,06,30,00,09,13.30
2008,06,30,00,10,13.30
2008,06,30,00,11,13.30
2008,06,30,00,12,13.30
2008,06,30,00,13,13.20
2008,06,30,00,14,13.20
2008,06,30,00,15,13.20
2008,06,30,00,16,13.20
2008,06,30,00,17,13.20
2008,06,30,00,18,13.20
2008,06,30,00,19,13.20
2008,06,30,00,20,13.20
2008,06,30,00,21,13.20
2008,06,30,00,22,13.20
2008,06,30,00,23,13.20
2008,06,30,00,24,13.20
2008,06,30,00,25,13.20
2008,06,30,00,26,13.20
2008,06,30,00,27,13.20
2008,06,30,00,28,13.30
2008,06,30,00,29,13.30
2008,06,30,00,30,13.30
2008,06,30,00,31,13.30
2008,06,30,00,32,13.30
2008,06,30,00,33,13.20
2008,06,30,00,34,13.20
2008,06,30,00,35,13.20
2008,06,30,00,36,13.20
2008,06,30,00,37,13.20
2008,06,30,00,38,13.30
2008,06,30,00,39,13.30
2008,06,30,00,40,13.30
2008,06,30,00,41,13.30
2008,06,30,00,42,13.30
2008,06,30,00,43,13.30
2008,06,30,00,44,13.30
2008,06,30,00,45,13.30
2008,06,30,00,46,13.30
2008,06,30,00,47,13.30
2008,06,30,00,48,13.30
2008,06,30,00,49,13.40
2008,06,30,00,50,13.40
2008,06,30,00,51,13.40
2008,06,30,00,52,13.40
2008,06,30,00,53,13.40
2008,06,30,00,54,13.40
2008,06,30,00,55,13.40
2008,06,30,00,56,13.40
2008,06,30,00,57,13.40
2008,06,30,00,58,13.50
2008,06,30,00,59,13.60
2008,06,30,01,00,13.70
2008,06,30,01,01,13.80
2008,06,30,01,02,14.00
2008,06,30,01,03,14.20
2008,06,30,01,04,14.30
2008,06,30,01,05,14.20
2008,06,30,01,06,14.10
2008,06,30,01,07,14.10
2008,06,30,01,08,14.00
2008,06,30,01,09,13.90
2008,06,30,01,10,13.80
2008,06,30,01,11,13.80
2008,06,30,01,12,13.70
2008,06,30,01,13,13.70
2008,06,30,01,14,13.60
2008,06,30,01,15,13.50
2008,06,30,01,16,13.50
2008,06,30,01,17,13.40
2008,06,30,01,18,13.40
2008,06,30,01,19,13.40
2008,06,30,01,20,13.40
2008,06,30,01,21,13.40
2008,06,30,01,22,13.40
2008,06,30,01,23,13.40
2008,06,30,01,24,13.40
2008,06,30,01,25,13.40
2008,06,30,01,26,13.40
2008,06,30,01,27,13.40
2008,06,30,01,28,13.40
2008,06,30,01,29,13.40
2008,06,30,01,30,13.40
2008,06,30,01,31,13.40
2008,06,30,01,32,13.50
2008,06,30,01,33,13.50
2008,06,30,01,34,13.60
2008,06,30,01,35,13.60
2008,06,30,01,36,13.60
2008,06,30,01,37,13.70
2008,06,30,01,38,13.70
2008,06,30,01,39,13.70
2008,06,30,01,40,13.70
2008,06,30,01,41,13.70
2008,06,30,01,42,13.80
2008,06,30,01,43,13.80
2008,06,30,01,44,13.80
2008,06,30,01,45,13.80
2008,06,30,01,46,13.80
2008,06,30,01,47,13.80
2008,06,30,01,48,13.80
2008,06,30,01,49,13.90
2008,06,30,01,50,13.90
2008,06,30,01,51,14.00
2008,06,30,01,52,14.00
2008,06,30,01,53,14.10
2008,06,30,01,54,14.20
2008,06,30,01,55,14.20
2008,06,30,01,56,14.30
2008,06,30,01,57,14.30
2008,06,30,01,58,14.40
2008,06,30,01,59,14.50
2008,06,30,02,00,14.50
2008,06,30,02,01,14.60
2008,06,30,02,02,14.70
2008,06,30,02,03,14.80
2008,06,30,02,04,14.90
2008,06,30,02,05,15.00
2008,06,30,02,06,15.00
2008,06,30,02,07,15.00
2008,06,30,02,08,15.10
2008,06,30,02,09,15.30
2008,06,30,02,10,15.30
2008,06,30,02,11,15.50
2008,06,30,02,12,15.60
2008,06,30,02,13,15.70
2008,06,30,02,14,15.80
2008,06,30,02,15,15.80
2008,06,30,02,16,15.90
2008,06,30,02,17,15.90
2008,06,30,02,18,16.00
2008,06,30,02,19,16.10
2008,06,30,02,20,16.10
2008,06,30,02,21,16.10
2008,06,30,02,22,16.10
2008,06,30,02,23,16.10
2008,06,30,02,24,16.10
2008,06,30,02,25,16.10
2008,06,30,02,26,16.00
2008,06,30,02,27,15.90
2008,06,30,02,28,15.80
2008,06,30,02,29,15.70
2008,06,30,02,30,15.70
2008,06,30,02,31,15.60
2008,06,30,02,32,15.50
2008,06,30,02,33,15.40
2008,06,30,02,34,15.30
2008,06,30,02,35,15.20
2008,06,30,02,36,15.00
2008,06,30,02,37,15.00
2008,06,30,02,38,15.00
2008,06,30,02,39,15.00
2008,06,30,02,40,14.90
2008,06,30,02,41,14.80
2008,06,30,02,42,14.80
2008,06,30,02,43,14.80
2008,06,30,02,44,14.80
2008,06,30,02,45,14.80
2008,06,30,02,46,14.80
2008,06,30,02,47,14.80
2008,06,30,02,48,14.80
2008,06,30,02,49,14.80
2008,06,30,02,50,14.80
2008,06,30,02,51,14.80
2008,06,30,02,52,14.80
2008,06,30,02,53,14.80
2008,06,30,02,54,14.80
2008,06,30,02,55,14.80
2008,06,30,02,56,14.80
2008,06,30,02,57,14.80
2008,06,30,02,58,14.80
2008,06,30,02,59,14.80
2008,06,30,03,00,14.80
2008,06,30,03,01,14.80
2008,06,30,03,02,14.80
2008,06,30,03,03,14.80
2008,06,30,03,04,14.90
2008,06,30,03,05,14.90
2008,06,30,03,06,14.90
2008,06,30,03,07,14.90
2008,06,30,03,08,15.00
2008,06,30,03,09,15.00
2008,06,30,03,10,15.00
2008,06,30,03,11,15.00
2008,06,30,03,12,15.00
2008,06,30,03,13,15.10
2008,06,30,03,14,15.20
2008,06,30,03,15,15.20
2008,06,30,03,16,15.30
2008,06,30,03,17,15.40
2008,06,30,03,18,15.50
2008,06,30,03,19,15.60
2008,06,30,03,20,15.70
2008,06,30,03,21,15.70
2008,06,30,03,22,15.80
2008,06,30,03,23,15.90
2008,06,30,03,24,15.90
2008,06,30,03,25,15.90
2008,06,30,03,26,15.90
2008,06,30,03,27,15.90
2008,06,30,03,28,15.90
2008,06,30,03,29,15.80
2008,06,30,03,30,15.80
2008,06,30,03,31,15.90
2008,06,30,03,32,15.90
2008,06,30,03,33,15.90
2008,06,30,03,34,15.90
2008,06,30,03,35,15.90
2008,06,30,03,36,15.90
2008,06,30,03,37,16.00
2008,06,30,03,38,16.00
2008,06,30,03,39,16.00
2008,06,30,03,40,15.90
2008,06,30,03,41,15.90
2008,06,30,03,42,15.90
2008,06,30,03,43,15.90
2008,06,30,03,44,15.90
2008,06,30,03,45,15.90
2008,06,30,03,46,15.90
2008,06,30,03,47,15.90
2008,06,30,03,48,15.90
2008,06,30,03,49,15.90
2008,06,30,03,50,15.90
2008,06,30,03,51,16.00
2008,06,30,03,52,16.00
2008,06,30,03,53,16.00
2008,06,30,03,54,16.00
2008,06,30,03,55,16.00
2008,06,30,03,56,16.00
2008,06,30,03,57,16.10
2008,06,30,03,58,16.10
2008,06,30,03,59,16.10
2008,06,30,04,00,16.10
2008,06,30,04,01,16.20
2008,06,30,04,02,16.20
2008,06,30,04,03,16.20
2008,06,30,04,04,16.20
2008,06,30,04,05,16.20
2008,06,30,04,06,16.20
2008,06,30,04,07,16.20
2008,06,30,04,08,16.20
2008,06,30,04,09,16.20
2008,06,30,04,10,16.30
2008,06,30,04,11,16.30
2008,06,30,04,12,16.40
2008,06,30,04,13,16.40
2008,06,30,04,14,16.50
2008,06,30,04,15,16.50
2008,06,30,04,16,16.50
2008,06,30,04,17,16.60
2008,06,30,04,18,16.60
2008,06,30,04,19,16.60
2008,06,30,04,20,16.60
2008,06,30,04,21,16.70
2008,06,30,04,22,16.70
2008,06,30,04,23,16.70
2008,06,30,04,24,16.70
2008,06,30,04,25,16.70
2008,06,30,04,26,16.70
2008,06,30,04,27,16.70
2008,06,30,04,28,16.70
2008,06,30,04,29,16.70
2008,06,30,04,30,16.70
2008,06,30,04,31,16.70
2008,06,30,04,32,16.80
2008,06,30,04,33,16.90
2008,06,30,04,34,16.90
2008,06,30,04,35,17.00
2008,06,30,04,36,17.10
2008,06,30,04,37,17.10
2008,06,30,04,38,17.10
2008,06,30,04,39,17.00
2008,06,30,04,40,17.00
2008,06,30,04,41,16.90
2008,06,30,04,42,16.90
2008,06,30,04,43,16.90
2008,06,30,04,44,17.00
2008,06,30,04,45,17.10
2008,06,30,04,46,17.10
2008,06,30,04,47,17.20
2008,06,30,04,48,17.20
2008,06,30,04,49,17.30
2008,06,30,04,50,17.30
2008,06,30,04,51,17.30
2008,06,30,04,52,17.40
2008,06,30,04,53,17.40
2008,06,30,04,54,17.40
2008,06,30,04,55,17.40
2008,06,30,04,56,17.40
2008,06,30,04,57,17.40
2008,06,30,04,58,17.40
2008,06,30,04,59,17.40
2008,06,30,05,00,17.40
2008,06,30,05,01,17.40
2008,06,30,05,02,17.30
2008,06,30,05,03,17.30
2008,06,30,05,04,17.30
2008,06,30,05,05,17.30
2008,06,30,05,06,17.30
2008,06,30,05,07,17.20
2008,06,30,05,08,17.20
2008,06,30,05,09,17.20
2008,06,30,05,10,17.20
2008,06,30,05,11,17.20
2008,06,30,05,12,17.20
2008,06,30,05,13,17.20
2008,06,30,05,14,17.20
2008,06,30,05,15,17.20
2008,06,30,05,16,17.20
2008,06,30,05,17,17.20
2008,06,30,05,18,17.30
2008,06,30,05,19,17.20
2008,06,30,05,20,17.30
2008,06,30,05,21,17.30
2008,06,30,05,22,17.30
2008,06,30,05,23,17.20
2008,06,30,05,24,17.20
2008,06,30,05,25,17.20
2008,06,30,05,26,17.20
2008,06,30,05,27,17.20
2008,06,30,05,28,17.20
2008,06,30,05,29,17.20
2008,06,30,05,30,17.20
2008,06,30,05,31,17.20
2008,06,30,05,32,17.10
2008,06,30,05,33,17.10
2008,06,30,05,34,17.10
2008,06,30,05,35,17.10
2008,06,30,05,36,17.10
2008,06,30,05,37,17.00
2008,06,30,05,38,17.00
2008,06,30,05,39,17.00
2008,06,30,05,40,17.00
2008,06,30,05,41,17.00
2008,06,30,05,42,17.00
2008,06,30,05,43,17.00
2008,06,30,05,44,17.00
2008,06,30,05,45,17.00
2008,06,30,05,46,17.00
2008,06,30,05,47,17.00
2008,06,30,05,48,16.90
2008,06,30,05,49,16.90
2008,06,30,05,50,16.90
2008,06,30,05,51,16.90
2008,06,30,05,52,16.90
2008,06,30,05,53,16.90
2008,06,30,05,54,16.80
2008,06,30,05,55,16.80
2008,06,30,05,56,16.90
2008,06,30,05,57,16.90
2008,06,30,05,58,16.90
2008,06,30,05,59,17.00
2008,06,30,06,00,17.00
2008,06,30,06,01,17.10
2008,06,30,06,02,17.10
2008,06,30,06,03,17.10
2008,06,30,06,04,17.10
2008,06,30,06,05,17.10
2008,06,30,06,06,17.10
2008,06,30,06,07,17.20
2008,06,30,06,08,17.20
2008,06,30,06,09,17.20
2008,06,30,06,10,17.30
2008,06,30,06,11,17.30
2008,06,30,06,12,17.30
2008,06,30,06,13,17.40
2008,06,30,06,14,17.40
2008,06,30,06,15,17.40
2008,06,30,06,16,17.40
2008,06,30,06,17,17.40
2008,06,30,06,18,17.40
2008,06,30,06,19,17.40
2008,06,30,06,20,17.40
2008,06,30,06,21,17.40
2008,06,30,06,22,17.30
2008,06,30,06,23,17.30
2008,06,30,06,24,17.20
2008,06,30,06,25,17.20
2008,06,30,06,26,17.10
2008,06,30,06,27,17.10
2008,06,30,06,28,17.00
2008,06,30,06,29,17.00
2008,06,30,06,30,17.00
2008,06,30,06,31,17.00
2008,06,30,06,32,17.00
2008,06,30,06,33,16.90
2008,06,30,06,34,16.90
2008,06,30,06,35,16.90
2008,06,30,06,36,16.90
2008,06,30,06,37,16.80
2008,06,30,06,38,16.70
2008,06,30,06,39,16.70
2008,06,30,06,40,16.60
2008,06,30,06,41,16.60
2008,06,30,06,42,16.60
2008,06,30,06,43,16.70
2008,06,30,06,44,16.70
2008,06,30,06,45,16.70
2008,06,30,06,46,16.70
2008,06,30,06,47,16.70
2008,06,30,06,48,16.60
2008,06,30,06,49,16.50
2008,06,30,06,50,16.50
2008,06,30,06,51,16.40
2008,06,30,06,52,16.30
2008,06,30,06,53,16.20
2008,06,30,06,54,16.10
2008,06,30,06,55,16.00
2008,06,30,06,56,15.90
2008,06,30,06,57,15.80
2008,06,30,06,58,15.70
2008,06,30,06,59,15.60
2008,06,30,07,00,15.50
2008,06,30,07,01,15.40
2008,06,30,07,02,15.40
2008,06,30,07,03,15.30
2008,06,30,07,04,15.30
2008,06,30,07,05,15.30
2008,06,30,07,06,15.30
2008,06,30,07,07,15.30
2008,06,30,07,08,15.30
2008,06,30,07,09,15.30
2008,06,30,07,10,15.40
2008,06,30,07,11,15.40
2008,06,30,07,12,15.50
2008,06,30,07,13,15.60
2008,06,30,07,14,15.60
2008,06,30,07,15,15.70
2008,06,30,07,16,15.70
2008,06,30,07,17,15.80
2008,06,30,07,18,15.80
2008,06,30,07,19,15.90
2008,06,30,07,20,16.10
2008,06,30,07,21,16.10
2008,06,30,07,22,16.20
2008,06,30,07,23,16.30
2008,06,30,07,24,16.40
2008,06,30,07,25,16.50
2008,06,30,07,26,16.60
2008,06,30,07,27,16.60
2008,06,30,07,28,16.70
2008,06,30,07,29,16.70
2008,06,30,07,30,16.70
2008,06,30,07,31,16.80
2008,06,30,07,32,16.90
2008,06,30,07,33,17.00
2008,06,30,07,34,17.10
2008,06,30,07,35,17.00
2008,06,30,07,36,16.80
2008,06,30,07,37,16.60
2008,06,30,07,38,16.50
2008,06,30,07,39,16.30
2008,06,30,07,40,16.30
2008,06,30,07,41,16.30
2008,06,30,07,42,16.30
2008,06,30,07,43,16.30
2008,06,30,07,44,16.30
2008,06,30,07,45,16.10
2008,06,30,07,46,16.00
2008,06,30,07,47,15.70
2008,06,30,07,48,15.40
2008,06,30,07,49,15.10
2008,06,30,07,50,14.90
2008,06,30,07,51,14.50
2008,06,30,07,52,14.10
2008,06,30,07,53,13.80
2008,06,30,07,54,13.50
2008,06,30,07,55,13.30
2008,06,30,07,56,13.10
2008,06,30,07,57,13.00
2008,06,30,07,58,13.00
2008,06,30,07,59,12.90
2008,06,30,08,00,12.80
2008,06,30,08,01,12.80
2008,06,30,08,02,12.80
2008,06,30,08,03,12.80
2008,06,30,08,04,12.80
2008,06,30,08,05,12.80
2008,06,30,08,06,12.80
2008,06,30,08,07,12.80
2008,06,30,08,08,12.90
2008,06,30,08,09,13.00
2008,06,30,08,10,13.10
2008,06,30,08,11,13.20
2008,06,30,08,12,13.30
2008,06,30,08,13,13.40
2008,06,30,08,14,13.50
2008,06,30,08,15,13.50
2008,06,30,08,16,13.60
2008,06,30,08,17,13.50
2008,06,30,08,18,13.50
2008,06,30,08,19,13.50
2008,06,30,08,20,13.50
2008,06,30,08,21,13.50
2008,06,30,08,22,13.50
2008,06,30,08,23,13.50
2008,06,30,08,24,13.50
2008,06,30,08,25,13.50
2008,06,30,08,26,13.50
2008,06,30,08,27,13.50
2008,06,30,08,28,13.50
2008,06,30,08,29,13.50
2008,06,30,08,30,13.40
2008,06,30,08,31,13.40
2008,06,30,08,32,13.30
2008,06,30,08,33,13.30
2008,06,30,08,34,13.30
2008,06,30,08,35,13.30
2008,06,30,08,36,13.30
2008,06,30,08,37,13.30
2008,06,30,08,38,13.30
2008,06,30,08,39,13.40
2008,06,30,08,40,13.40
2008,06,30,08,41,13.40
2008,06,30,08,42,13.50
2008,06,30,08,43,13.50
2008,06,30,08,44,13.60
2008,06,30,08,45,13.70
2008,06,30,08,46,13.70
2008,06,30,08,47,13.80
2008,06,30,08,48,13.80
2008,06,30,08,49,13.90
2008,06,30,08,50,14.00
2008,06,30,08,51,14.00
2008,06,30,08,52,14.10
2008,06,30,08,53,14.20
2008,06,30,08,54,14.30
2008,06,30,08,55,14.30
2008,06,30,08,56,14.40
2008,06,30,08,57,14.50
2008,06,30,08,58,14.60
2008,06,30,08,59,14.70
2008,06,30,09,00,14.70
2008,06,30,09,01,14.80
2008,06,30,09,02,14.90
2008,06,30,09,03,15.00
2008,06,30,09,04,15.00
2008,06,30,09,05,15.10
2008,06,30,09,06,15.30
2008,06,30,09,07,15.50
2008,06,30,09,08,15.60
2008,06,30,09,09,15.80
2008,06,30,09,10,16.00
2008,06,30,09,11,16.10
2008,06,30,09,12,16.30
2008,06,30,09,13,16.30
2008,06,30,09,14,16.40
2008,06,30,09,15,16.50
2008,06,30,09,16,16.50
2008,06,30,09,17,16.60
2008,06,30,09,18,16.70
2008,06,30,09,19,16.70
2008,06,30,09,20,16.70
2008,06,30,09,21,16.70
2008,06,30,09,22,16.70
2008,06,30,09,23,16.70
2008,06,30,09,24,16.70
2008,06,30,09,25,16.70
2008,06,30,09,26,16.80
2008,06,30,09,27,16.80
2008,06,30,09,28,16.80
2008,06,30,09,29,16.80
2008,06,30,09,30,16.90
2008,06,30,09,31,17.00
2008,06,30,09,32,17.10
2008,06,30,09,33,17.20
2008,06,30,09,34,17.30
2008,06,30,09,35,17.40
2008,06,30,09,36,17.50
2008,06,30,09,37,17.50
2008,06,30,09,38,17.50
2008,06,30,09,39,17.50
2008,06,30,09,40,17.60
2008,06,30,09,41,17.80
2008,06,30,09,42,17.90
2008,06,30,09,43,18.00
2008,06,30,09,44,18.10
2008,06,30,09,45,18.10
2008,06,30,09,46,18.20
2008,06,30,09,47,18.30
2008,06,30,09,48,18.30
2008,06,30,09,49,18.20
2008,06,30,09,50,18.10
2008,06,30,09,51,17.90
2008,06,30,09,52,17.90
2008,06,30,09,53,17.70
2008,06,30,09,54,17.60
2008,06,30,09,55,17.60
2008,06,30,09,56,17.60
2008,06,30,09,57,17.60
2008,06,30,09,58,17.50
2008,06,30,09,59,17.60
2008,06,30,10,00,17.60
2008,06,30,10,01,17.60
2008,06,30,10,02,17.60
2008,06,30,10,03,17.50
2008,06,30,10,04,17.40
2008,06,30,10,05,17.40
2008,06,30,10,06,17.30
2008,06,30,10,07,17.30
2008,06,30,10,08,17.30
2008,06,30,10,09,17.30
2008,06,30,10,10,17.30
2008,06,30,10,11,17.30
2008,06,30,10,12,17.30
2008,06,30,10,13,17.30
2008,06,30,10,14,17.30
2008,06,30,10,15,17.30
2008,06,30,10,16,17.30
2008,06,30,10,17,17.30
2008,06,30,10,18,17.40
2008,06,30,10,19,17.50
2008,06,30,10,20,17.70
2008,06,30,10,21,17.70
2008,06,30,10,22,17.70
2008,06,30,10,23,17.80
2008,06,30,10,24,17.80
2008,06,30,10,25,17.80
2008,06,30,10,26,17.70
2008,06,30,10,27,17.70
2008,06,30,10,28,17.70
2008,06,30,10,29,17.70
2008,06,30,10,30,17.80
2008,06,30,10,31,17.80
2008,06,30,10,32,17.90
2008,06,30,10,33,18.10
2008,06,30,10,34,18.20
2008,06,30,10,35,18.30
2008,06,30,10,36,18.30
2008,06,30,10,37,18.40
2008,06,30,10,38,18.50
2008,06,30,10,39,18.50
2008,06,30,10,40,18.60
2008,06,30,10,41,18.70
2008,06,30,10,42,18.70
2008,06,30,10,43,18.80
2008,06,30,10,44,18.90
2008,06,30,10,45,19.00
2008,06,30,10,46,19.20
2008,06,30,10,47,19.30
2008,06,30,10,48,19.30
2008,06,30,10,49,19.30
2008,06,30,10,50,19.30
2008,06,30,10,51,19.40
2008,06,30,10,52,19.40
2008,06,30,10,53,19.50
2008,06,30,10,54,19.60
2008,06,30,10,55,19.60
2008,06,30,10,56,19.60
2008,06,30,10,57,19.70
2008,06,30,10,58,19.70
2008,06,30,10,59,19.70
2008,06,30,11,00,19.70
2008,06,30,11,01,19.70
2008,06,30,11,02,19.70
2008,06,30,11,03,19.70
2008,06,30,11,04,19.80
2008,06,30,11,05,19.90
2008,06,30,11,06,20.00
2008,06,30,11,07,20.10
2008,06,30,11,08,20.10
2008,06,30,11,09,20.20
2008,06,30,11,10,20.30
2008,06,30,11,11,20.40
2008,06,30,11,12,20.50
2008,06,30,11,13,20.50
2008,06,30,11,14,20.60
2008,06,30,11,15,20.70
2008,06,30,11,16,20.80
2008,06,30,11,17,20.90
2008,06,30,11,18,21.10
2008,06,30,11,19,21.20
2008,06,30,11,20,21.40
2008,06,30,11,21,21.50
2008,06,30,11,22,21.60
2008,06,30,11,23,21.70
2008,06,30,11,24,21.80
2008,06,30,11,25,21.80
2008,06,30,11,26,21.80
2008,06,30,11,27,21.80
2008,06,30,11,28,21.80
2008,06,30,11,29,21.80
2008,06,30,11,30,21.80
2008,06,30,11,31,21.90
2008,06,30,11,32,21.80
2008,06,30,11,33,21.80
2008,06,30,11,34,21.80
2008,06,30,11,35,21.80
2008,06,30,11,36,21.80
2008,06,30,11,37,21.80
2008,06,30,11,38,21.80
2008,06,30,11,39,21.80
2008,06,30,11,40,21.80
2008,06,30,11,41,21.80
2008,06,30,11,42,21.80
2008,06,30,11,43,21.80
2008,06,30,11,44,21.80
2008,06,30,11,45,21.80
2008,06,30,11,46,21.90
2008,06,30,11,47,21.90
2008,06,30,11,48,22.00
2008,06,30,11,49,22.10
2008,06,30,11,50,22.10
2008,06,30,11,51,22.20
2008,06,30,11,52,22.30
2008,06,30,11,53,22.40
2008,06,30,11,54,22.50
2008,06,30,11,55,22.50
2008,06,30,11,56,22.60
2008,06,30,11,57,22.70
2008,06,30,11,58,22.60
2008,06,30,11,59,22.60
2008,06,30,12,00,22.60
2008,06,30,12,01,22.50
2008,06,30,12,02,22.50
2008,06,30,12,03,22.40
2008,06,30,12,04,22.30
2008,06,30,12,05,22.20
2008,06,30,12,06,22.10
2008,06,30,12,07,22.00
2008,06,30,12,08,21.90
2008,06,30,12,09,21.90
2008,06,30,12,10,21.90
2008,06,30,12,11,21.90
2008,06,30,12,12,22.00
2008,06,30,12,13,22.10
2008,06,30,12,14,22.30
2008,06,30,12,15,22.40
2008,06,30,12,16,22.50
2008,06,30,12,17,22.50
2008,06,30,12,18,22.60
2008,06,30,12,19,22.60
2008,06,30,12,20,22.60
2008,06,30,12,21,22.50
2008,06,30,12,22,22.50
2008,06,30,12,23,22.50
2008,06,30,12,24,22.50
2008,06,30,12,25,22.60
2008,06,30,12,26,22.60
2008,06,30,12,27,22.70
2008,06,30,12,28,22.80
2008,06,30,12,29,23.00
2008,06,30,12,30,23.10
2008,06,30,12,31,23.30
2008,06,30,12,32,23.40
2008,06,30,12,33,23.50
2008,06,30,12,34,23.60
2008,06,30,12,35,23.70
2008,06,30,12,36,23.80
2008,06,30,12,37,23.80
2008,06,30,12,38,23.80
2008,06,30,12,39,23.80
2008,06,30,12,40,23.80
2008,06,30,12,41,23.90
2008,06,30,12,42,24.00
2008,06,30,12,43,24.10
2008,06,30,12,44,24.10
2008,06,30,12,45,24.10
2008,06,30,12,46,24.10
2008,06,30,12,47,24.20
2008,06,30,12,48,24.30
2008,06,30,12,49,24.40
2008,06,30,12,50,24.40
2008,06,30,12,51,24.40
2008,06,30,12,52,24.30
2008,06,30,12,53,24.10
2008,06,30,12,54,24.10
2008,06,30,12,55,24.10
2008,06,30,12,56,24.20
2008,06,30,12,57,24.30
2008,06,30,12,58,24.30
2008,06,30,12,59,24.40
2008,06,30,13,00,24.40
2008,06,30,13,01,24.50
2008,06,30,13,02,24.60
2008,06,30,13,03,24.70
2008,06,30,13,04,24.70
2008,06,30,13,05,24.70
2008,06,30,13,06,24.70
2008,06,30,13,07,24.60
2008,06,30,13,08,24.60
2008,06,30,13,09,24.70
2008,06,30,13,10,24.70
2008,06,30,13,11,24.70
2008,06,30,13,12,24.70
2008,06,30,13,13,24.60
2008,06,30,13,14,24.60
2008,06,30,13,15,24.50
2008,06,30,13,16,24.50
2008,06,30,13,17,24.50
2008,06,30,13,18,24.60
2008,06,30,13,19,24.60
2008,06,30,13,20,24.70
2008,06,30,13,21,24.70
2008,06,30,13,22,24.80
2008,06,30,13,23,24.80
2008,06,30,13,24,24.80
2008,06,30,13,25,24.70
2008,06,30,13,26,24.50
2008,06,30,13,27,24.30
2008,06,30,13,28,24.30
2008,06,30,13,29,24.30
2008,06,30,13,30,24.40
2008,06,30,13,31,24.50
2008,06,30,13,32,24.50
2008,06,30,13,33,24.60
2008,06,30,13,34,24.60
2008,06,30,13,35,24.60
2008,06,30,13,36,24.50
2008,06,30,13,37,24.40
2008,06,30,13,38,24.40
2008,06,30,13,39,24.30
2008,06,30,13,40,24.40
2008,06,30,13,41,24.40
2008,06,30,13,42,24.40
2008,06,30,13,43,24.30
2008,06,30,13,44,24.20
2008,06,30,13,45,24.10
2008,06,30,13,46,24.10
2008,06,30,13,47,24.10
2008,06,30,13,48,24.10
2008,06,30,13,49,24.10
2008,06,30,13,50,24.10
2008,06,30,13,51,24.20
2008,06,30,13,52,24.10
2008,06,30,13,53,24.20
2008,06,30,13,54,24.20
2008,06,30,13,55,24.20
2008,06,30,13,56,24.30
2008,06,30,13,57,24.30
2008,06,30,13,58,24.30
2008,06,30,13,59,24.20
2008,06,30,14,00,24.10
2008,06,30,14,01,24.00
2008,06,30,14,02,23.90
2008,06,30,14,03,23.80
2008,06,30,14,04,23.80
2008,06,30,14,05,23.80
2008,06,30,14,06,23.80
2008,06,30,14,07,23.90
2008,06,30,14,08,24.00
2008,06,30,14,09,23.90
2008,06,30,14,10,23.90
2008,06,30,14,11,23.80
2008,06,30,14,12,23.80
2008,06,30,14,13,23.80
2008,06,30,14,14,23.70
2008,06,30,14,15,23.70
2008,06,30,14,16,23.70
2008,06,30,14,17,23.70
2008,06,30,14,18,23.80
2008,06,30,14,19,24.00
2008,06,30,14,20,24.10
2008,06,30,14,21,24.20
2008,06,30,14,22,24.20
2008,06,30,14,23,24.30
2008,06,30,14,24,24.30
2008,06,30,14,25,24.30
2008,06,30,14,26,24.40
2008,06,30,14,27,24.40
2008,06,30,14,28,24.50
2008,06,30,14,29,24.50
2008,06,30,14,30,24.50
2008,06,30,14,31,24.40
2008,06,30,14,32,24.40
2008,06,30,14,33,24.40
2008,06,30,14,34,24.40
2008,06,30,14,35,24.40
2008,06,30,14,36,24.40
2008,06,30,14,37,24.50
2008,06,30,14,38,24.50
2008,06,30,14,39,24.60
2008,06,30,14,40,24.60
2008,06,30,14,41,24.70
2008,06,30,14,42,24.80
2008,06,30,14,43,24.90
2008,06,30,14,44,25.00
2008,06,30,14,45,25.10
2008,06,30,14,46,25.20
2008,06,30,14,47,25.20
2008,06,30,14,48,25.20
2008,06,30,14,49,25.20
2008,06,30,14,50,25.20
2008,06,30,14,51,25.30
2008,06,30,14,52,25.40
2008,06,30,14,53,25.40
2008,06,30,14,54,25.40
2008,06,30,14,55,25.60
2008,06,30,14,56,25.60
2008,06,30,14,57,25.60
2008,06,30,14,58,25.60
2008,06,30,14,59,25.70
2008,06,30,15,00,25.70
2008,06,30,15,01,25.70
2008,06,30,15,02,25.60
2008,06,30,15,03,25.60
2008,06,30,15,04,25.50
2008,06,30,15,05,25.60
2008,06,30,15,06,25.60
2008,06,30,15,07,25.60
2008,06,30,15,08,25.60
2008,06,30,15,09,25.60
2008,06,30,15,10,25.70
2008,06,30,15,11,25.70
2008,06,30,15,12,25.80
2008,06,30,15,13,25.80
2008,06,30,15,14,25.80
2008,06,30,15,15,25.80
2008,06,30,15,16,25.80
2008,06,30,15,17,25.90
2008,06,30,15,18,25.90
2008,06,30,15,19,25.90
2008,06,30,15,20,26.00
2008,06,30,15,21,26.10
2008,06,30,15,22,26.20
2008,06,30,15,23,26.30
2008,06,30,15,24,26.30
2008,06,30,15,25,26.30
2008,06,30,15,26,26.30
2008,06,30,15,27,26.10
2008,06,30,15,28,26.00
2008,06,30,15,29,25.90
2008,06,30,15,30,25.90
2008,06,30,15,31,25.90
2008,06,30,15,32,25.80
2008,06,30,15,33,25.80
2008,06,30,15,34,25.70
2008,06,30,15,35,25.50
2008,06,30,15,36,25.30
2008,06,30,15,37,25.20
2008,06,30,15,38,25.20
2008,06,30,15,39,25.20
2008,06,30,15,40,25.20
2008,06,30,15,41,25.10
2008,06,30,15,42,25.00
2008,06,30,15,43,24.80
2008,06,30,15,44,24.70
2008,06,30,15,45,24.70
2008,06,30,15,46,24.70
2008,06,30,15,47,24.70
2008,06,30,15,48,24.70
2008,06,30,15,49,24.50
2008,06,30,15,50,24.40
2008,06,30,15,51,24.30
2008,06,30,15,52,24.20
2008,06,30,15,53,24.20
2008,06,30,15,54,24.10
2008,06,30,15,55,24.10
2008,06,30,15,56,24.00
2008,06,30,15,57,24.00
2008,06,30,15,58,23.90
2008,06,30,15,59,23.90
2008,06,30,16,00,23.80
2008,06,30,16,01,23.80
2008,06,30,16,02,23.80
2008,06,30,16,03,23.80
2008,06,30,16,04,23.90
2008,06,30,16,05,23.90
2008,06,30,16,06,24.00
2008,06,30,16,07,24.10
2008,06,30,16,08,24.10
2008,06,30,16,09,24.20
2008,06,30,16,10,24.20
2008,06,30,16,11,24.20
2008,06,30,16,12,24.20
2008,06,30,16,13,24.30
2008,06,30,16,14,24.40
2008,06,30,16,15,24.40
2008,06,30,16,16,24.40
2008,06,30,16,17,24.40
2008,06,30,16,18,24.40
2008,06,30,16,19,24.50
2008,06,30,16,20,24.50
2008,06,30,16,21,24.60
2008,06,30,16,22,24.70
2008,06,30,16,23,24.80
2008,06,30,16,24,24.80
2008,06,30,16,25,24.80
2008,06,30,16,26,24.80
2008,06,30,16,27,24.80
2008,06,30,16,28,24.90
2008,06,30,16,29,25.00
2008,06,30,16,30,25.00
2008,06,30,16,31,25.00
2008,06,30,16,32,24.90
2008,06,30,16,33,24.90
2008,06,30,16,34,25.00
2008,06,30,16,35,25.10
2008,06,30,16,36,25.20
2008,06,30,16,37,25.40
2008,06,30,16,38,25.50
2008,06,30,16,39,25.60
2008,06,30,16,40,25.60
2008,06,30,16,41,25.60
2008,06,30,16,42,25.60
2008,06,30,16,43,25.60
2008,06,30,16,44,25.60
2008,06,30,16,45,25.60
2008,06,30,16,46,25.70
2008,06,30,16,47,25.80
2008,06,30,16,48,25.80
2008,06,30,16,49,25.80
2008,06,30,16,50,25.90
2008,06,30,16,51,25.90
2008,06,30,16,52,26.00
2008,06,30,16,53,26.10
2008,06,30,16,54,26.20
2008,06,30,16,55,26.20
2008,06,30,16,56,26.20
2008,06,30,16,57,26.20
2008,06,30,16,58,26.20
2008,06,30,16,59,26.20
2008,06,30,17,00,26.20
2008,06,30,17,01,26.20
2008,06,30,17,02,26.30
2008,06,30,17,03,26.20
2008,06,30,17,04,26.20
2008,06,30,17,05,26.20
2008,06,30,17,06,26.20
2008,06,30,17,07,26.20
2008,06,30,17,08,26.30
2008,06,30,17,09,26.30
2008,06,30,17,10,26.40
2008,06,30,17,11,26.60
2008,06,30,17,12,26.70
2008,06,30,17,13,26.70
2008,06,30,17,14,26.70
2008,06,30,17,15,26.70
2008,06,30,17,16,26.90
2008,06,30,17,17,27.00
2008,06,30,17,18,27.10
2008,06,30,17,19,27.10